STARLINK-11251, 60930

Orbit data source: Space-Track

STARLINK-11251, 60930 is a payload satellite owned by SpaceX/Seattle (US) in LEO that was launched on Sat, 31 Aug 2024 UTC via an FALCON 9 launch vehicle from the Air Force Western Test Range (AFWTR). Payloads include a variety of satellites, spacecraft, and rockets equipped with specific instruments for various scientific and technological missions. These include communications satellites like Starlink; space stations such as the ISS; scientific satellites like the Hubble; Earth observation satellites from companies like Planet Labs, Umbra, and HawkEye 360; GPS; miniature CubeSats for education and research; and military/defense satellites.

Loading next visibility...
STARLINK-11251 details
Identifier
60930, 2024-155G
Orbit
LEO
Last TLE update18 hours ago
Origin
Flag of USSpaceX/Seattle (US)
ManufacturerSpaceX/Seattle
MissionOperational spacecraft
Bus & MotorSTARLINK V2M, Unknown motor
Mass730 kg wet, ~700 kg dry
Launch date (UTC)
2024-08-31 (5 months ago)
Launch vehicle
FALCON 9
Launch site
Air Force Western Test Range (AFWTR)
Object type
Payload
Rocket body
Debris
Shape & HBRUnknown
Radar Cross SectionLarge (>1 m²)

Expand to show TLE details & history

TLE from 18 hours ago
0 STARLINK-11251
1 60930U 24155G   25014.87274343 -.00000768  00000-0 -14832-5 0  9991
2 60930  53.1594 245.7779 0001018 104.5946 255.5185 15.69709792 22625
Epoch: 2025-01-14T20:56Z
Definitive object data (Epoch: 2025-01-14T20:56:45.032Z)
Latitude-0°
Longitude177.01706°
Altitude360.814 km
Speed7.694 km/s
True Right ascension16h 23m 06s
True Declination0° 00' 00"
Sunlit
Object was in daylight at TLE epoch
Visualization TLE readout
Latitude-46.39869°
Longitude121.83435°
Altitude376.193 km
Speed7.683 km/s
Apparent Right ascension07h 58m 17s
Apparent Declination-67° 48' 44"
Sunlit
Object is in daylight
Visualization observer readout
Local Sidereal Time15:41:18
Azimuth209.349° SW
Elevation-46.054°
Doppler factor1
Orbital elements
Apogee altitude360.674 km
Perigee altitude359.302 km
Semi-major axis6,738.125 km
Eccentricity0.0001018
Inclination53.1594°
RAAN245.7779°
Arg. of periapsis104.5946°
True anomaly255.50721°
Mean anomaly255.5185°
Eccentric anomaly255.51285°
Mean motion3.92405 °/min
BSTAR-0.0000014832
Orbital period91.74 mins
Loading maneuver chart data...
Loading historical data...
Loading historical data...
Loading historical data...
Loading historical data...
Loading historical data...
Loading historical data...
Loading historical data...

STARLINK-11251 Visibility forecast

Observer location: undefined°, undefined

Span
Click to sort rows by Start time (UTC) header in descending order
Start Az.
Max El. time (UTC)
Max El. Az.
Max El.
End time (UTC)
End Az.
4 mins2025-01-16 00:58:31.156Z291.59° WNW2025-01-16 00:59:31.156Z259.794° W36.904°2025-01-16 01:02:31.156Z145.722° SSE
|